EN

Hourly Weather Almaguer

Today, 17 January, Sunday

Time Temperature Precipitation Wind Pressure Humidity
00:00 +12°C° 0.1 mm 0 mps 586 mmHg 96%
01:00 +12°C° 0.1 mm 0 mps 585 mmHg 97%
02:00 +12°C° 0.1 mm 0 mps 585 mmHg 97%
03:00 +12°C° 0.1 mm 0 mps 585 mmHg 97%
04:00 +12°C° 0.1 mm 0 mps 584 mmHg 97%
05:00 +12°C° 0 mm 0 mps 585 mmHg 96%
06:00 +12°C° 0 mm 0 mps 585 mmHg 95%
07:00 +12°C° 0 mm 0 mps 585 mmHg 94%
08:00 +14°C° 0 mm 0 mps 586 mmHg 86%
09:00 +18°C° 0 mm 1 mps 588 mmHg 78%
10:00 +20°C° 0 mm 1 mps 589 mmHg 69%
11:00 +21°C° 0.3 mm 1 mps 589 mmHg 68%
12:00 +21°C° 0.3 mm 1 mps 588 mmHg 66%
13:00 +22°C° 0.3 mm 1 mps 588 mmHg 65%
14:00 +21°C° 0.7 mm 1 mps 587 mmHg 70%
15:00 +20°C° 0.7 mm 1 mps 586 mmHg 74%
16:00 +20°C° 0.7 mm 1 mps 585 mmHg 79%
17:00 +18°C° 0.8 mm 1 mps 585 mmHg 85%
18:00 +15°C° 0.8 mm 0 mps 585 mmHg 90%
19:00 +13°C° 0.8 mm 0 mps 584 mmHg 95%
20:00 +13°C° 0.3 mm 0 mps 585 mmHg 95%
21:00 +13°C° 0.3 mm 0 mps 585 mmHg 96%
22:00 +12°C° 0.3 mm 0 mps 586 mmHg 96%
23:00 +12°C° 0 mm 0 mps 585 mmHg 96%

Tomorrow, 18 January, Monday

Time Temperature Precipitation Wind Pressure Humidity
00:00 +12°C° 0 mm 0 mps 585 mmHg 96%
01:00 +12°C° 0 mm 0 mps 585 mmHg 96%
02:00 +12°C° 0 mm 0 mps 585 mmHg 96%
03:00 +11°C° 0 mm 0 mps 584 mmHg 95%
04:00 +11°C° 0 mm 0 mps 584 mmHg 95%
05:00 +11°C° 0 mm 0 mps 585 mmHg 94%
06:00 +11°C° 0 mm 0 mps 585 mmHg 93%
07:00 +12°C° 0 mm 0 mps 586 mmHg 92%
08:00 +15°C° 0.1 mm 1 mps 587 mmHg 86%
09:00 +18°C° 0.1 mm 1 mps 588 mmHg 81%
10:00 +20°C° 0.1 mm 1 mps 589 mmHg 75%
11:00 +20°C° 0.7 mm 1 mps 588 mmHg 76%
12:00 +20°C° 0.7 mm 1 mps 588 mmHg 77%
13:00 +20°C° 0.7 mm 1 mps 587 mmHg 78%
14:00 +20°C° 1.1 mm 1 mps 587 mmHg 81%
15:00 +19°C° 1.1 mm 1 mps 586 mmHg 84%
16:00 +19°C° 1.1 mm 1 mps 585 mmHg 87%
17:00 +18°C° 1.2 mm 1 mps 585 mmHg 90%
18:00 +16°C° 1.2 mm 1 mps 585 mmHg 93%
19:00 +14°C° 1.2 mm 1 mps 585 mmHg 96%
20:00 +14°C° 0.3 mm 1 mps 585 mmHg 95%
21:00 +13°C° 0.3 mm 1 mps 585 mmHg 95%
22:00 +13°C° 0.3 mm 1 mps 586 mmHg 94%
23:00 +13°C° 0 mm 1 mps 585 mmHg 94%

Day after tomorrow, 19 January, Tuesday

Time Temperature Precipitation Wind Pressure Humidity
00:00 +12°C° 0 mm 1 mps 585 mmHg 94%
01:00 +12°C° 0 mm 1 mps 585 mmHg 94%
02:00 +12°C° 0 mm 1 mps 585 mmHg 94%
03:00 +12°C° 0 mm 1 mps 584 mmHg 94%
04:00 +12°C° 0 mm 1 mps 584 mmHg 94%
05:00 +12°C° 0 mm 1 mps 585 mmHg 93%
06:00 +12°C° 0 mm 1 mps 585 mmHg 93%
07:00 +12°C° 0 mm 1 mps 585 mmHg 92%
08:00 +15°C° 0 mm 1 mps 586 mmHg 83%
09:00 +18°C° 0 mm 1 mps 588 mmHg 74%
10:00 +20°C° 0 mm 1 mps 589 mmHg 65%
11:00 +21°C° 0.1 mm 1 mps 589 mmHg 64%
12:00 +22°C° 0.1 mm 1 mps 588 mmHg 62%
13:00 +22°C° 0.1 mm 1 mps 588 mmHg 60%
14:00 +22°C° 0.5 mm 1 mps 587 mmHg 66%
15:00 +21°C° 0.5 mm 1 mps 587 mmHg 72%
16:00 +20°C° 0.5 mm 1 mps 586 mmHg 78%
17:00 +19°C° 0.9 mm 1 mps 586 mmHg 84%
18:00 +16°C° 0.9 mm 1 mps 585 mmHg 89%
19:00 +14°C° 0.9 mm 1 mps 585 mmHg 95%
20:00 +14°C° 0.3 mm 1 mps 585 mmHg 94%
21:00 +14°C° 0.3 mm 1 mps 586 mmHg 93%
22:00 +13°C° 0.3 mm 2 mps 586 mmHg 93%
23:00 +13°C° 0.1 mm 1 mps 586 mmHg 93%

20 January, Wednesday

Time Temperature Precipitation Wind Pressure Humidity
00:00 +13°C° 0.1 mm 1 mps 585 mmHg 93%
01:00 +13°C° 0.1 mm 1 mps 585 mmHg 93%
02:00 +12°C° 0 mm 1 mps 585 mmHg 93%
03:00 +12°C° 0 mm 1 mps 585 mmHg 93%
04:00 +12°C° 0 mm 1 mps 584 mmHg 92%
05:00 +12°C° 0 mm 1 mps 585 mmHg 91%
06:00 +12°C° 0 mm 1 mps 585 mmHg 90%
07:00 +12°C° 0 mm 1 mps 585 mmHg 89%
08:00 +15°C° 0 mm 1 mps 586 mmHg 81%
09:00 +18°C° 0 mm 1 mps 588 mmHg 72%
10:00 +20°C° 0 mm 1 mps 589 mmHg 64%
11:00 +21°C° 0 mm 1 mps 589 mmHg 61%
12:00 +22°C° 0 mm 1 mps 588 mmHg 58%
13:00 +23°C° 0 mm 1 mps 588 mmHg 55%
14:00 +22°C° 0.3 mm 1 mps 587 mmHg 60%
15:00 +22°C° 0.3 mm 1 mps 587 mmHg 65%
16:00 +21°C° 0.3 mm 1 mps 586 mmHg 70%
17:00 +19°C° 0.7 mm 1 mps 586 mmHg 78%
18:00 +16°C° 0.7 mm 1 mps 585 mmHg 87%
19:00 +14°C° 0.7 mm 0 mps 585 mmHg 96%
20:00 +14°C° 0.2 mm 1 mps 585 mmHg 95%
21:00 +14°C° 0.2 mm 1 mps 586 mmHg 95%
22:00 +14°C° 0.2 mm 1 mps 586 mmHg 95%
23:00 +13°C° 0 mm 1 mps 586 mmHg 95%

21 January, Thursday

Time Temperature Precipitation Wind Pressure Humidity
00:00 +13°C° 0 mm 1 mps 586 mmHg 95%
01:00 +13°C° 0 mm 1 mps 585 mmHg 95%
02:00 +13°C° 0 mm 1 mps 585 mmHg 95%
03:00 +12°C° 0 mm 1 mps 585 mmHg 95%
04:00 +12°C° 0 mm 1 mps 584 mmHg 95%
05:00 +12°C° 0 mm 1 mps 585 mmHg 94%
06:00 +12°C° 0 mm 1 mps 585 mmHg 93%
07:00 +13°C° 0 mm 1 mps 585 mmHg 93%
08:00 +15°C° 0 mm 1 mps 587 mmHg 85%
09:00 +18°C° 0 mm 1 mps 588 mmHg 77%
10:00 +20°C° 0 mm 1 mps 589 mmHg 69%
11:00 +20°C° 0.4 mm 1 mps 588 mmHg 70%
12:00 +21°C° 0.4 mm 1 mps 588 mmHg 72%
13:00 +21°C° 0.4 mm 1 mps 588 mmHg 73%
14:00 +20°C° 1.1 mm 1 mps 587 mmHg 78%
15:00 +19°C° 1.1 mm 1 mps 586 mmHg 83%
16:00 +16°C° 1.1 mm 0 mps 585 mmHg 88%
17:00 +15°C° 1.2 mm 0 mps 585 mmHg 90%
18:00 +14°C° 1.2 mm 0 mps 585 mmHg 93%
19:00 +14°C° 1.2 mm 0 mps 585 mmHg 95%
20:00 +14°C° 0.4 mm 1 mps 585 mmHg 95%
21:00 +14°C° 0.4 mm 1 mps 586 mmHg 94%
22:00 +14°C° 0.4 mm 1 mps 586 mmHg 94%
23:00 +14°C° 0.1 mm 1 mps 586 mmHg 94%

22 January, Friday

Time Temperature Precipitation Wind Pressure Humidity
00:00 +13°C° 0.1 mm 1 mps 586 mmHg 94%
01:00 +13°C° 0.1 mm 1 mps 585 mmHg 95%
02:00 +13°C° 0.3 mm 1 mps 585 mmHg 95%
03:00 +13°C° 0.3 mm 1 mps 585 mmHg 95%
04:00 +13°C° 0.3 mm 1 mps 585 mmHg 95%
05:00 +13°C° 0.1 mm 1 mps 585 mmHg 94%
06:00 +13°C° 0.1 mm 1 mps 585 mmHg 94%
07:00 +13°C° 0.1 mm 1 mps 586 mmHg 94%
08:00 +14°C° 0.1 mm 1 mps 587 mmHg 90%
09:00 +16°C° 0.1 mm 1 mps 587 mmHg 86%
10:00 +18°C° 0.1 mm 1 mps 588 mmHg 83%
11:00 +19°C° 0.6 mm 1 mps 588 mmHg 83%
12:00 +19°C° 0.6 mm 1 mps 588 mmHg 83%
13:00 +19°C° 0.6 mm 1 mps 587 mmHg 83%
14:00 +19°C° 1 mm 1 mps 587 mmHg 84%
15:00 +19°C° 1 mm 1 mps 586 mmHg 85%
16:00 +16°C° 1 mm 0 mps 585 mmHg 86%
17:00 +15°C° 0.8 mm 0 mps 585 mmHg 90%
18:00 +14°C° 0.8 mm 0 mps 585 mmHg 93%
19:00 +13°C° 0.8 mm 0 mps 585 mmHg 96%
20:00 +13°C° 0.3 mm 0 mps 586 mmHg 96%
21:00 +13°C° 0.3 mm 0 mps 586 mmHg 95%
22:00 +13°C° 0.3 mm 0 mps 586 mmHg 95%
23:00 +13°C° 0.3 mm 0 mps 586 mmHg 95%
Show more